EHI
0 0 0 0 0 0 0 0 0 0 0 0 0 0 0 0 0 0 0 0 0 0 0 0 0 0 0 0 0 0 0 0 0 0 0 0 0 0
0 0 0 0 0 0 0 0 0 0 0 0 0 0 0 0 0 0 0 0 0 0 0 0 0 0 0 0 0 0 0 0 0 0 0 0 0 0
0 0 0 0 0 0 0 0 0 0 0 0 0 0 0 0 0 0 0 0 0 0 0 0 0 0 0 0 0 0 0 0 0 0 0 0 0 0
0 0 0 0 0 0 0 0 0 0 0 0 0 0 0 0 0 0 0 0 0 0 0 0 0 0 0 0 0 0 0 0 0 0 0 0 0 0
0 0 0 0 0 0 0 0 0 0 0 0 0 0 0 0 0 0 0 0 0 0 0 0 0 0 0 0 0 0 0 0 0 0 0 0 0 0
0 0 0 0 0 0 0 0 0 0 0 0 0 0 0 0 0 0 0 0 0 0 0 0 0 0 0 0 0 0 0 0 0 0 0 0 0 0
0 0 0 0 0 0 0 0 0 0 0 0 0 0 0 0 0 0 0 0 0 0 0 0 0 0 0 0 0 0 0 0 0 0 0 0 0 0
0 0 0 0 0 0 0 0 0 0 0 0 0 0 0 0 0 0 0 0 0 0 0 0 0 0 0 0 0 0 0 0 0 0 0 0 0 0
0 0 0 0 0 0 0 0 0 0 0 0 0 0 0 0 0 0 0 0 0 0 0 0 0 0 0 0 0 0 0 0 0 0 0 0 0 0
0 0 0 0 0 0 0 0 0 0 0 0 0 0 0 0 0 0 0 0 0 0 0 0 0 0 0 0 0 0 0 0 0 0 0 0 0 0
0 0 0 0 0 0 0 0 0 0 0 0 0 0 0 0 0 0 0 0 0 0 0 0 0 0 0 0 0 0 0 0 0 0 0 0 0 0
0 0 0 0 0 0 0 0 0 0 0 0 0 0 0 0 0 0 0 0 0 0 0 0 0 0 0 0 0 0 0 0 0 0 0 0 0 0
0 0 0 0 0 0 0 0 0 0 0 0 0 0 0 0 0 0 0 0 0 0 0 0 0 0 0 0 0 0 0 0 0 0 0 0 0 0
0 0 0 0 0 0 0 0 0 0 0 0 0 0 0 0 0 0 0 0 0 0 0 0 0 0 0 0 0 0 0 0 0 0 0 0 0 0
0 0 0 0 0 0 0 0 0 0 0 0 0 0 0 0 0 0 0 0 0 0 0 0 0 0 0 0 0 0 0 0 0 0 0 0 0 0
0 0 0 0 0 0 0 0 0 0 0 0 0 0 0 0 0 0 0 0 0 0 0 0 0 0 0 0 0 0 0 0 0 0 0 0 0 0
0 0 0 0 0 0 0 0 0 0 0 0 0 0 0 0 0 0 0 0 0 0 0 0 0 0 0 0 0 0 0 0 0 0 0 0 0 0
0 0 0 0 0 0 0 0 0 0 0 0 0 0 0 0 0 0 0 0 0 0 0 0 0 0 0 0 0 0 0 0 0 0 0 0 0 0
0 0 0 0 0 0 0 0 0 0 0 0 0 0 0 0 0 0 0 0 0 0 0 0 0 0 0 0 0 0 0 0 0 0 0 0 0 0
0 0 0 0 0 0 0 0 0 0 0 0 0 0 0 0 0 0 0 0 0 0 0 0 0 0 0 0 0 0 0 0 0 0 0 0 0 0
0 0 0 0 0 0 0 0 0 0 0 0 0 0 0 0 0 0 0 0 0 0 0 0 0 0 0 0 0 0 0 0 0 0 0 0 0 0
0 0 0 0 0 0 0 0 0 0 0 0 0 0 0 0 0 0 0 0 0 0 0 0 0 0 0 0 0 0 0 0 0 0 0 0 0 0
0 0 0 0 0 0 0 0 0 0 0 0 0 0 0 0 0 0 0 0 0 0 0 0 0 0 0 0 0 0 0 0 0 0 0 0 0 0
Wind_Speed
2 2 1 1 1 2 2 2 3 2 4 3 2 2 2 1 3 2 3 5 6 7 8 8 8 8 8 9 9 9 9 9 10 10 11 11 11 11
2 2 2 1 1 2 2 2 3 3 4 3 3 2 2 3 4 3 3 7 7 7 8 8 8 8 8 8 9 9 9 10 10 11 11 11 11 11
2 3 3 2 2 2 2 3 3 3 4 4 2 2 2 3 3 3 3 4 4 8 9 9 9 9 9 8 9 10 10 10 11 11 11 11 12 12
3 3 3 2 3 3 3 3 3 3 4 5 3 2 3 3 3 3 3 3 4 8 10 10 9 9 9 9 9 10 10 10 10 10 11 11 12 12
4 4 4 4 4 3 4 3 3 3 3 4 4 2 2 2 2 3 3 3 4 6 8 9 9 9 9 9 9 9 9 9 9 10 10 11 11 12
4 4 5 5 5 5 4 5 4 3 3 3 3 3 2 2 2 2 3 2 3 3 5 6 8 8 9 9 9 9 9 9 9 9 10 10 10 11
4 4 5 6 7 6 5 5 4 3 3 3 3 3 3 2 3 2 3 3 3 3 3 3 3 3 4 7 8 9 9 9 9 9 10 10 10 11
4 4 4 5 7 9 9 8 7 5 5 4 4 5 5 4 3 3 2 2 4 2 2 4 2 4 4 3 8 10 10 9 9 8 9 10 10 10
4 4 4 4 6 5 7 8 8 10 9 6 6 6 5 5 4 4 4 4 5 3 2 4 2 4 4 5 9 10 10 9 8 8 9 9 10 10
4 5 5 5 5 5 5 5 5 6 7 6 6 6 5 4 5 5 4 3 3 2 2 4 3 3 4 3 8 9 7 7 7 8 9 9 10 10
4 5 5 5 8 8 5 5 5 5 7 8 8 7 8 7 5 2 2 2 4 3 2 2 2 2 3 3 4 5 5 6 7 8 8 8 8 8
3 4 7 7 9 8 5 5 6 5 3 4 4 5 5 6 7 5 4 3 2 3 2 2 2 1 2 2 2 2 3 5 7 7 7 7 7 3
3 3 4 8 9 9 7 5 7 4 3 3 3 3 2 2 3 3 3 3 3 3 2 2 1 1 2 3 2 2 2 2 2 3 5 6 7 5
3 3 3 7 7 7 5 5 6 4 2 2 2 3 3 3 2 2 2 2 2 3 3 3 2 3 2 3 3 2 2 2 2 2 2 5 6 8
3 5 6 6 5 4 5 5 3 2 2 2 3 3 2 2 1 1 0 0 1 1 2 2 3 2 3 3 3 2 2 2 2 2 2 3 3 3
3 3 5 4 3 3 3 2 1 2 2 3 3 2 1 1 1 1 1 1 1 1 1 1 2 2 2 3 3 4 3 3 2 2 2 3 3 3
2 1 1 1 1 1 1 1 1 1 1 1 1 1 1 1 1 1 1 1 1 2 1 1 1 0 2 2 3 4 3 3 3 2 2 3 3 3
2 1 2 2 2 2 2 2 1 2 1 1 1 2 2 2 1 1 1 1 2 2 1 1 0 1 1 2 4 4 3 3 2 2 2 3 4 3
2 2 2 2 2 2 2 2 2 2 1 2 2 2 2 2 1 1 1 1 2 1 1 1 1 1 1 3 3 3 3 2 2 2 2 3 4 4
1 2 2 2 2 2 2 2 2 1 1 2 2 1 1 2 2 2 2 2 2 1 1 1 1 2 3 3 2 3 3 3 2 2 3 2 3 5
2 2 2 2 2 2 2 2 2 2 2 1 2 2 2 2 2 2 2 3 2 2 2 2 2 2 1 0 1 3 2 3 4 3 2 2 3 3
2 2 3 2 2 2 2 2 2 2 1 1 2 2 2 2 2 2 2 2 2 2 2 2 1 0 1 2 2 3 3 3 4 5 5 5 3 2
2 2 2 2 2 2 1 2 2 2 2 2 2 2 1 2 2 2 2 2 2 2 1 1 0 0 1 2 2 2 3 3 3 3 3 5 6 8
Wind_Direction
195 195 207 221 215 208 192 190 191 237 257 244 242 246 250 254 261 241 248 268 276 278 278 281 282 282 280 281 282 284 280 277 275 276 277 275 275 278
202 197 214 218 212 212 201 207 208 214 248 242 236 254 266 272 270 260 251 272 273 276 282 280 277 275 277 280 281 282 280 276 273 274 276 276 277 279
217 210 221 215 211 212 210 210 213 210 243 268 255 256 243 251 269 264 253 251 260 270 272 274 275 274 275 278 280 280 280 278 275 273 274 276 277 278
222 222 232 227 226 220 216 217 220 218 225 256 266 251 246 248 252 259 265 258 255 270 272 271 274 275 272 271 276 278 278 277 277 277 276 275 276 278
219 223 229 220 233 232 228 227 227 230 226 241 262 257 255 255 262 270 271 264 267 271 272 272 274 276 276 277 277 279 279 276 273 273 274 275 275 277
226 224 224 221 227 229 232 229 224 225 226 241 259 264 258 253 244 261 276 261 268 278 272 273 275 278 280 282 281 279 275 271 270 270 272 276 278 278
240 236 234 235 234 231 233 225 217 220 221 238 256 266 258 244 245 239 263 281 275 252 261 268 269 268 273 275 275 274 272 268 268 269 271 275 279 279
238 243 244 242 245 246 248 241 227 222 224 230 243 250 253 246 246 242 256 275 277 233 235 271 250 259 260 250 265 271 269 266 269 272 273 275 276 278
236 237 247 247 250 241 249 250 243 243 237 230 238 242 241 233 229 241 240 251 259 249 249 273 260 266 269 268 272 270 265 263 267 272 277 280 279 280
241 235 236 243 241 240 238 242 240 241 241 236 235 241 242 231 226 235 237 254 273 256 221 257 261 266 282 277 274 266 261 263 268 271 278 280 281 283
247 240 237 237 246 250 244 243 251 253 254 249 248 251 251 249 240 219 219 248 273 259 210 227 251 277 282 276 276 275 273 275 276 278 281 283 286 291
255 247 249 251 254 252 237 229 243 249 239 247 250 254 250 240 232 217 208 230 260 256 204 198 227 271 290 278 276 288 286 283 288 287 287 288 291 291
256 254 254 263 263 257 247 231 243 251 228 225 237 243 242 232 226 221 215 218 231 246 212 188 217 227 244 285 291 274 258 266 285 286 294 293 292 294
261 256 258 270 271 266 255 252 256 254 213 215 231 237 234 234 231 226 228 245 246 246 224 205 211 215 232 266 276 283 284 273 264 266 263 285 292 295
262 268 276 276 275 265 256 261 250 212 205 226 235 243 236 225 205 209 232 266 328 295 245 235 219 221 222 239 255 261 290 284 260 255 259 264 266 268
280 278 283 282 280 282 279 264 232 219 226 230 234 234 206 197 212 216 231 233 276 300 303 271 233 209 231 244 245 260 257 261 272 276 285 283 272 257
300 295 292 297 278 280 278 261 238 230 248 247 233 228 223 222 237 216 210 226 232 256 289 309 334 268 236 230 245 253 259 263 263 273 285 292 285 271
324 298 281 272 261 262 261 265 250 249 246 235 228 222 219 219 236 238 229 223 236 253 254 255 327 3 346 289 234 241 250 256 268 270 268 277 289 284
320 291 278 272 269 266 262 259 262 260 241 226 223 217 213 211 213 224 226 231 239 251 258 240 211 176 262 293 289 229 229 262 277 280 272 256 270 284
302 292 287 279 275 267 260 261 263 258 241 234 225 219 213 214 216 219 222 222 235 246 260 255 226 210 216 242 269 284 255 241 248 269 283 286 280 285
297 292 285 278 275 274 271 262 252 244 240 232 225 220 215 211 218 221 225 233 241 226 242 258 252 250 227 155 285 290 288 266 254 250 262 289 299 303
291 289 286 280 276 271 270 268 261 247 237 233 228 224 218 207 211 219 221 225 229 228 244 269 270 213 171 199 249 279 298 313 313 301 279 247 240 252
288 288 288 286 279 275 265 260 257 251 240 231 228 223 218 221 222 221 223 223 218 219 233 265 277 187 198 203 229 266 287 302 315 328 316 301 283 270